Location: Dzierzno
(50.6159°N, 19.2852°E)
Time: 20:49:20
(UTC+00:00)

AQUARIUS - Pass Details

Date: 18 November 2025
Orbit: 634 x 636 km, 98.0° (Epoch: 10 December)

Event Time Altitude Azimuth Distance (km) Brightness Sun altitude
Rises 16:05:28 0° 157° (SSE) 2,924 7.5 -11.4°
Reaches altitude 10° 16:07:40 10° 155° (SSE) 2,019 6.6 -11.7°
Maximum altitude 16:12:02 68° 73° (ENE) 688 4.0 -12.4°
Drops below altitude 10° 16:16:26 10° 350° (N) 2,034 6.7 -13.1°
Sets 16:18:39 0° 348° (NNW) 2,946 7.5 -13.4°
